Lake George Weather Center

Moon Phase Calendar



Lake George Water Level
Online Cameras

 


      

Current Conditions in Pierson
5/28/2022 8:44:53 AM

76°F
Feels Like 76
Clear
Humidity
61%
Pressure
29.94"
Wind
4 mph (W)
Dew Point
61°F
UV Index
2/10 (Low)
Visibility
6 mi

Hourly Forecast

Date & Time Sat, May 28
8:00 AM
Sat, May 28
9:00 AM
Sat, May 28
10:00 AM
Sat, May 28
11:00 AM
Sat, May 28
12:00 PM
Sat, May 28
1:00 PM
Sat, May 28
2:00 PM
Sat, May 28
3:00 PM
Sat, May 28
4:00 PM
Sat, May 28
5:00 PM
Sat, May 28
6:00 PM
Sat, May 28
7:00 PM
Sat, May 28
8:00 PM
Sat, May 28
9:00 PM
Sat, May 28
10:00 PM
Sat, May 28
11:00 PM
Sun, May 29
12:00 AM
Sun, May 29
1:00 AM
Sun, May 29
2:00 AM
Sun, May 29
3:00 AM
Sun, May 29
4:00 AM
Sun, May 29
5:00 AM
Sun, May 29
6:00 AM
Sun, May 29
7:00 AM
Sun, May 29
8:00 AM
Sun, May 29
9:00 AM
Sun, May 29
10:00 AM
Sun, May 29
11:00 AM
Sun, May 29
12:00 PM
Sun, May 29
1:00 PM
Sun, May 29
2:00 PM
Sun, May 29
3:00 PM
Sun, May 29
4:00 PM
Sun, May 29
5:00 PM
Sun, May 29
6:00 PM
Sun, May 29
7:00 PM
Sun, May 29
8:00 PM
Sun, May 29
9:00 PM
Sun, May 29
10:00 PM
Sun, May 29
11:00 PM
Mon, May 30
12:00 AM
Mon, May 30
1:00 AM
Mon, May 30
2:00 AM
Mon, May 30
3:00 AM
Mon, May 30
4:00 AM
Mon, May 30
5:00 AM
Mon, May 30
6:00 AM
Mon, May 30
7:00 AM
Condition
Clear

Clear

Clear

Clear

Clear

Clear

Clear

Clear

Clear

Clear

Clear

Clear

Clear

Clear

Clear

Clear

Clear

Clear

Clear

Clear

Clear

Clear

Clear

Clear

Clear

Clear

Clear

Clear

Clear

Clear

Clear

Clouds

Clouds

Rain

Clouds

Rain

Rain

Rain

Rain

Rain

Rain

Clouds

Clouds

Clouds

Clouds

Clear

Clear

Clear
Temperature 75°F76°F77°F80°F84°F89°F94°F95°F95°F94°F92°F88°F83°F79°F75°F74°F72°F72°F71°F70°F70°F69°F69°F69°F74°F80°F86°F90°F93°F94°F96°F93°F89°F83°F86°F84°F77°F74°F73°F73°F70°F69°F69°F69°F68°F68°F68°F69°F
Feels Like 76°F76°F77°F80°F84°F87°F91°F92°F92°F91°F89°F86°F82°F78°F75°F73°F72°F72°F71°F71°F70°F70°F69°F70°F75°F82°F86°F90°F94°F95°F96°F94°F90°F86°F89°F87°F78°F75°F75°F74°F71°F70°F69°F69°F69°F69°F69°F69°F
Cloudiness 1%0%0%0%0%0%0%0%0%0%0%1%1%0%0%0%0%0%0%0%0%0%0%0%0%0%0%0%0%0%5%54%64%70%55%45%42%90%95%97%87%72%64%15%11%10%8%8%
Visibility 6 mi6 mi6 mi6 mi6 mi6 mi6 mi6 mi6 mi6 mi6 mi6 mi6 mi6 mi6 mi6 mi6 mi6 mi6 mi6 mi6 mi6 mi6 mi6 mi6 mi6 mi6 mi6 mi6 mi6 mi6 mi6 mi6 mi6 mi6 mi6 mi6 mi6 mi6 mi6 mi6 mi6 mi6 mi6 mi6 mi6 mi6 mi6 mi
Precipitation 46%0%0%0%0%0%0%0%0%0%0%0%0%0%4%4%4%4%3%0%0%0%0%0%0%8%12%10%10%10%10%12%16%37%21%44%74%69%77%74%74%78%74%0%0%0%0%0%
Humidity 66%61%59%51%43%34%24%22%22%23%26%34%42%49%57%62%66%69%72%75%78%80%82%82%70%58%46%38%35%33%32%36%45%61%53%57%76%86%88%87%91%91%91%91%90%90%89%88%
Dew Point 63°F61°F62°F60°F59°F57°F52°F51°F50°F51°F53°F56°F58°F58°F59°F60°F60°F61°F62°F62°F62°F63°F63°F63°F64°F64°F62°F61°F61°F62°F61°F62°F64°F67°F67°F67°F68°F69°F69°F68°F68°F66°F66°F65°F65°F65°F65°F65°F
Pressure 29.94"29.94"29.94"29.94"29.91"29.91"29.88"29.85"29.85"29.83"29.83"29.85"29.85"29.88"29.91"29.91"29.94"29.94"29.94"29.91"29.91"29.94"29.94"29.97"29.97"30"30"30"29.97"29.97"29.94"29.91"29.94"29.91"29.94"29.91"29.97"30"30"30.03"30.06"30.03"30.03"30"30"30"30.03"30.03"
Wind Speed 3.2 mph4 mph5.1 mph5.9 mph6.7 mph7.1 mph7.4 mph8.3 mph8.6 mph9 mph9.2 mph8.8 mph7.3 mph5.2 mph2.6 mph2 mph2.4 mph2.7 mph3.5 mph3.3 mph2.8 mph2.7 mph2.1 mph1.4 mph1.1 mph1.1 mph0.9 mph1.7 mph2.4 mph3.4 mph3.8 mph5 mph7.5 mph8.4 mph10.5 mph7.6 mph6 mph3.6 mph2.2 mph4.2 mph5 mph3.5 mph2.5 mph1.9 mph0.5 mph0.7 mph1.7 mph2.7 mph
Wind
Direction
270°
W
279°
W
269°
W
251°
WSW
240°
WSW
238°
WSW
240°
WSW
240°
WSW
235°
SW
233°
SW
233°
SW
232°
SW
242°
WSW
256°
WSW
232°
SW
201°
SSW
219°
SW
251°
WSW
274°
W
280°
W
287°
WNW
298°
WNW
305°
NW
310°
NW
334°
NNW
345°
NNW
23°
NNE
91°
E
126°
SE
133°
SE
144°
SE
126°
SE
123°
ESE
103°
ESE
105°
ESE
84°
E
161°
SSE
223°
SW
113°
ESE
112°
ESE
162°
SSE
174°
S
219°
SW
272°
W
198°
SSW
72°
ENE
48°
NE
66°
ENE

Daily Forecast

Date High Low Precip. Humidity
Today
May 28

Rain
95 °F
70 °F
54%
34%
Sunday
May 29

Rain
96 °F
69 °F
77%
33%
Monday
May 30

Rain
94 °F
68 °F
90%
37%
Tuesday
May 31

Rain
89 °F
71 °F
82%
45%
Wednesday
Jun 1

Rain
91 °F
70 °F
27%
36%
Thursday
Jun 2

Clear
92 °F
70 °F
8%
36%
Friday
Jun 3

Clouds
94 °F
71 °F
0%
37%
Saturday
Jun 4

Clear
95 °F
72 °F
10%
34%
Sunday
Jun 5

Clear
97 °F
71 °F
1%
28%
Monday
Jun 6

Rain
97 °F
71 °F
40%
34%
Tuesday
Jun 7

Clouds
97 °F
72 °F
1%
34%
Wednesday
Jun 8

Clouds
99 °F
72 °F
0%
30%
Thursday
Jun 9

Clouds
97 °F
72 °F
2%
31%
Friday
Jun 10

Rain
97 °F
72 °F
85%
33%
Saturday
Jun 11

Clouds
90 °F
72 °F
85%
44%
Sunday
Jun 12

Clouds
92 °F
74 °F
16%
40%

Temperature 8-14 Day Outlook



Precipitation 8-14 Day Outlook




Quick Links
Lake George News
Lake George Photos
Lake George Videos




About Us
Contact Us
Site Map
Search Site
Advertise With Us
   
George.USLakes.info
THE LAKE GEORGE WEBSITE

Copyright 2022, Lakes Online
Privacy    |    Legal